Fitchburg, MA

4:58 AM EDT on May 28, 2017 (GMT -0400)
Fitchburg Municipal

Weather History for KFIT - August, 2014

Change the Weather History Date:

Friday, August 29, 2014

  Actual Average (KORH) Record (KORH)
Temperature  
Mean Temperature 66 °F -  
Max Temperature 78 °F 74 °F 93 °F (1953)
Min Temperature 54 °F 58 °F 38 °F (1931)
Growing Degree Days 16 (Base 50)    
Moisture  
Dew Point 51 °F    
Average Humidity 62    
Maximum Humidity 87    
Minimum Humidity 42    
Precipitation  
Precipitation 0.00 in - - ()
Sea Level Pressure  
Sea Level Pressure 30.16 in    
Wind  
Wind Speed 4 mph (NNE)    
Max Wind Speed 10 mph    
Max Gust Speed -    
Visibility 10 miles    
Events      
Averages and records for this station are not official NWS values.
T = Trace of Precipitation, MM = Missing Value Source: NWS Daily Summary

Daily Weather History Graph

Daily Weather History Graph

Search for Another Location

Airport or City:

Trip Planner

Search our weather history database for the weather conditions in past years. The results will help you decide how hot, cold, wet, or windy it might be!

Date:

Astronomy

Aug. 29, 2014 Rise Set
Actual Time 6:08 AM EDT 7:26 PM EDT
Civil Twilight 5:39 AM EDT 7:55 PM EDT
Nautical Twilight 5:04 AM EDT 8:30 PM EDT
Astronomical Twilight 4:27 AM EDT 9:07 PM EDT
Moon 10:01 AM EDT (8/29) 9:16 PM EDT (8/29)
Length of Visible Light 14h 15m
Length of Day
13h 17m
Waxing Crescent, 15% of the Moon is Illuminated
Aug 29
Waxing Crescent
Sep 2
First Quarter
Sep 8
Full
Sep 15
Last Quarter
Sep 24
New

Hourly Weather History & Observations

Time (EDT) Temp. Dew Point Humidity Pressure Visibility Wind Dir Wind Speed Gust Speed Precip Events Conditions
12:52 AM 60.1 °F 46.9 °F 62% 30.04 in 10.0 mi NNW 5.8 mph - N/A   Clear
1:52 AM 57.0 °F 48.0 °F 72% 30.06 in 10.0 mi Calm Calm - N/A   Clear
2:52 AM 57.0 °F 48.0 °F 72% 30.06 in 10.0 mi WNW 8.1 mph - N/A   Clear
3:52 AM 55.9 °F 48.0 °F 75% 30.08 in 10.0 mi NW 8.1 mph - N/A   Clear
4:52 AM 55.9 °F 48.9 °F 77% 30.09 in 10.0 mi NW 6.9 mph - N/A   Clear
5:52 AM 54.0 °F 48.0 °F 80% 30.11 in 10.0 mi NW 3.5 mph - N/A   Clear
6:52 AM 55.9 °F 50.0 °F 80% 30.14 in 10.0 mi North 3.5 mph - N/A   Clear
7:52 AM 63.0 °F 51.1 °F 65% 30.15 in 10.0 mi Calm Calm - N/A   Clear
8:52 AM 68.0 °F 52.0 °F 56% 30.17 in 10.0 mi North 5.8 mph - N/A   Clear
9:52 AM 69.1 °F 51.1 °F 53% 30.19 in 10.0 mi ENE 4.6 mph - N/A   Clear
11:52 AM 73.9 °F 50.0 °F 43% 30.19 in 10.0 mi Calm Calm - N/A   Partly Cloudy
12:52 PM 73.0 °F 50.0 °F 44% 30.19 in 10.0 mi Calm Calm - N/A   Overcast
1:52 PM 75.9 °F 51.1 °F 42% 30.19 in 10.0 mi SE 9.2 mph - N/A   Scattered Clouds
2:52 PM 75.0 °F 51.1 °F 43% 30.19 in 10.0 mi Calm Calm - N/A   Partly Cloudy
4:52 PM 75.9 °F 51.1 °F 42% 30.19 in 10.0 mi ESE 5.8 mph - N/A   Overcast
5:52 PM 77.0 °F 52.0 °F 42% 30.20 in 10.0 mi Variable 3.5 mph - N/A   Overcast
6:52 PM 72.0 °F 55.9 °F 57% 30.21 in 10.0 mi SSE 10.4 mph - N/A   Partly Cloudy
8:52 PM 64.9 °F 55.0 °F 70% 30.26 in 10.0 mi ESE 4.6 mph - N/A   Clear
9:52 PM 63.0 °F 54.0 °F 72% 30.27 in 10.0 mi Calm Calm - N/A   Clear
11:52 PM 55.9 °F 52.0 °F 87% 30.28 in 10.0 mi SSE 3.5 mph - N/A   Clear